Washington State Current Weather Observations

 
 ASUS46 KSEW 170510
 RWRWA 
 
 WASHINGTON REGIONAL WEATHER ROUNDUP
 NATIONAL WEATHER SERVICE SEATTLE WA
 900 PM PST SAT FEB 16 2019
 
 NOTE:"FAIR" INDICATES FEW OR NO CLOUDS BELOW 12,000 FEET WITH NO 
 SIGNIFICANT WEATHER AND/OR OBSTRUCTIONS TO VISIBILITY.
 
 WAZ507-509-555>559-170600-
 SEATTLE, TACOMA, EVERETT, AND VICINITY
   
 CITY           SKY/WX    TMP DP  RH WIND       PRES   REMARKS
 EVERETT        MIX PCPN  37  35  92 SE5       29.90R                  
 BOEING FIELD   LGT RAIN  38  35  89 CALM      29.92R                  
 RENTON         LGT RAIN  39  36  89 E5        29.91R                  
 SEATAC AIRPORT CLOUDY    39  35  86 SE5       29.90R                  
 JBLM-MCCHORD   MOCLDY    35  35 100 S6        29.92R                  
 PUYALLUP       CLOUDY    37  36  93 CALM      29.91R                  
 BREMERTON      LGT RAIN  34  33  96 NE6       29.90R                  
 JBLM-FT LEWIS  NOT AVBL                                               
 TACOMA NARROWS CLOUDY    38  33  82 S8        29.91R                  
 
WAZ001-503-506-510-514-515-170600- NORTH INTERIOR CITY SKY/WX TMP DP RH WIND PRES REMARKS BELLINGHAM CLOUDY 34 32 92 CALM 29.89R FRIDAY HARBOR MOCLDY 38 35 89 N6 29.90R EASTSOUND LGT RAIN 41 39 93 N15 29.89R PORT ANGELES CLOUDY 35 32 88 CALM 29.90R EDIZ HOOK DRIZZLE 39 35 86 S7 29.90S PORT TOWNSEND CLOUDY 36 36 100 E3 29.90R NAS WHIDBEY MOCLDY 44 37 76 W8 29.92S ARLINGTON CLOUDY 36 35 96 SE3 29.91R FOG BURLINGTON CLOUDY N/A N/A N/A CALM 29.90R
WAZ020-022-039-040-504-511-512-170600- SOUTHWEST INTERIOR CITY SKY/WX TMP DP RH WIND PRES REMARKS SHELTON CLOUDY 35 32 88 W3 29.89R OLYMPIA FAIR 34 31 88 S7 29.92R CHEHALIS CLOUDY 36 34 93 CALM 29.93S KELSO CLOUDY 37 36 96 CALM 29.96R VANCOUVER CLOUDY 39 35 86 CALM 29.95R SCAPPOOSE, OR CLOUDY 37 34 89 CALM 29.95R PORTLAND, OR CLOUDY 38 34 85 NE3 29.96R
WAZ021-516-517-170600- WASHINGTON COAST CITY SKY/WX TMP DP RH WIND PRES REMARKS FORKS FAIR 31 29 92 E6 29.87S HOQUIAM MOCLDY 36 34 92 NE6 29.91S ASTORIA, OR FAIR 34 33 96 CALM 29.94R
WAZ019-023-024-040-567>569-170600- CASCADE MOUNTAINS AND COLUMBIA GORGE CITY SKY/WX TMP DP RH WIND PRES REMARKS STAMPEDE PASS LGT SNOW 26 23 88 VRB7 29.75R VSB 3/4 TROUTDALE, OR CLOUDY 38 35 89 NE6 29.96R HOOD RIVER, OR FAIR 34 32 93 CALM 29.90R THE DALLES, OR FAIR 30 28 92 CALM 29.91R FOG
WAZ026-027-041>044-520-521-170600- EAST SLOPES CITY SKY/WX TMP DP RH WIND PRES REMARKS OMAK CLOUDY 30 26 85 CALM 29.87R WENATCHEE CLOUDY 29 24 82 CALM 29.87S ELLENSBURG CLOUDY 30 25 81 N3 29.83R YAKIMA LGT SNOW 31 29 92 CALM 29.88R FOG SUNNYSIDE ARPT CLOUDY 33 31 93 E3 29.89 YAKIMA TC LGT RAIN 30 28 92 CALM 29.84R FOG
WAZ028-034-035-170600- COLUMBIA BASIN CITY SKY/WX TMP DP RH WIND PRES REMARKS EPHRATA CLOUDY 32 27 81 CALM 29.87R MOSES LAKE CLOUDY 31 26 82 SE3 29.88R PASCO CLOUDY 33 31 92 CALM 29.92R RICHLAND ARPT CLOUDY 34 32 92 CALM 29.92R HERMISTON, OR CLOUDY 32 29 88 W3 29.89R FOG
WAZ036>038-170600- NORTHEAST WASHINGTON CITY SKY/WX TMP DP RH WIND PRES REMARKS SPOKANE GEIGER CLOUDY 31 28 89 SW7 29.80R FOG SPOKANE FELTS CLOUDY 34 30 85 CALM 29.82R FAIRCHILD AFB FOG 29 29 100 SW6 29.79R VSB 1/2 COEURDALENE,ID LGT SNOW 31 30 96 W6 29.80S FOG DEER PARK CLOUDY 30 28 92 CALM 29.81R
WAZ029>033-170600- SOUTHEAST WASHINGTON CITY SKY/WX TMP DP RH WIND PRES REMARKS PULLMAN FOG 29 28 96 NW3 29.82R VSB 1/4 LEWISTON, ID CLOUDY 34 31 88 S5 29.84S WALLA WALLA CLOUDY 32 28 85 NE3 29.86S PENDLETON, OR CLOUDY 30 28 92 CALM 29.84R

Data from: http://www.wrh.noaa.gov/sew/get.php?pil=RWR&sid=WA&version=0&format=printer

Current Observations

Current Weather Conditions by Major Highway
Washington State Current Weather Observations   …  Oregon State Current Weather Observation



48 Hour Forecast


Seattle  …  Vancouver  …  Portland
————————————————————————————————————————
Bend  …  Spokane  …  Richland  …  Pendleton  …  Blue Mountains I-84  …  Yakima
————————————————————————————————————————
Goldendale, Washington Higher Elevations  …  Dallesport Airport - Goldendale  …  Bingen - White Salmon - Hood River  …  Index





Top of Page